Coldwater, MI

3:57 PM EDT on August 21, 2017 (GMT -0400)
Branch County Memorial

Weather History for KOEB - April, 2013

Change the Weather History Date:

Saturday, April 13, 2013

  Actual Average (KJYM) Record (KJYM)
Temperature  
Mean Temperature 37 °F -  
Max Temperature 40 °F 57 °F 81 °F (1977)
Min Temperature 34 °F 34 °F 17 °F (1950)
Degree Days  
Heating Degree Days 28    
Moisture  
Dew Point 29 °F    
Average Humidity 72    
Maximum Humidity 87    
Minimum Humidity 54    
Precipitation  
Precipitation 0.00 in - - ()
Sea Level Pressure  
Sea Level Pressure 29.87 in    
Wind  
Wind Speed 13 mph (WSW)    
Max Wind Speed 24 mph    
Max Gust Speed 30 mph    
Visibility 10 miles    
Events      
Averages and records for this station are not official NWS values.
T = Trace of Precipitation, MM = Missing Value Source: NWS Daily Summary

Daily Weather History Graph

Daily Weather History Graph

Search for Another Location

Airport or City:

Trip Planner

Search our weather history database for the weather conditions in past years. The results will help you decide how hot, cold, wet, or windy it might be!

Date:

Astronomy

Apr. 13, 2013 Rise Set
Actual Time 7:02 AM EDT 8:19 PM EDT
Civil Twilight 6:33 AM EDT 8:48 PM EDT
Nautical Twilight 5:59 AM EDT 9:22 PM EDT
Astronomical Twilight 5:22 AM EDT 9:59 PM EDT
Moon 8:51 AM EDT (4/13) 11:45 PM EDT (4/13)
Length of Visible Light 14h 14m
Length of Day
13h 16m
Waxing Crescent, 10% of the Moon is Illuminated
Apr 13
Waxing Crescent
Apr 18
First Quarter
Apr 25
Full
May 2
Last Quarter
May 9
New

Hourly Weather History & Observations

Time (EDT) Temp. Windchill Dew Point Humidity Pressure Visibility Wind Dir Wind Speed Gust Speed Precip Events Conditions
12:15 AM 38.3 °F 30.5 °F 33.3 °F 82% 29.79 in 10.0 mi West 12.7 mph 20.7 mph N/A   Overcast
12:35 AM 38.3 °F 28.4 °F 32.2 °F 79% 29.80 in 10.0 mi West 19.6 mph 23.0 mph N/A   Overcast
12:54 AM 38.3 °F 30.9 °F 32.2 °F 79% 29.80 in 10.0 mi West 11.5 mph 21.9 mph N/A   Overcast
1:15 AM 37.9 °F 31.5 °F 32.4 °F 80% 29.81 in 10.0 mi West 9.2 mph - N/A   Overcast
1:35 AM 37.8 °F 29.0 °F 31.8 °F 79% 29.81 in 10.0 mi West 15.0 mph - N/A   Overcast
1:55 AM 37.4 °F 29.3 °F 30.7 °F 77% 29.81 in 10.0 mi West 12.7 mph 23.0 mph N/A   Overcast
2:15 AM 37.0 °F 28.1 °F 29.7 °F 75% 29.82 in 10.0 mi WSW 15.0 mph - N/A   Overcast
2:35 AM 36.9 °F 27.1 °F 28.2 °F 71% 29.82 in 10.0 mi West 17.3 mph 24.2 mph N/A   Overcast
2:55 AM 36.9 °F 29.1 °F 28.4 °F 71% 29.82 in 10.0 mi West 11.5 mph - N/A   Overcast
3:15 AM 36.7 °F 28.9 °F 28.2 °F 71% 29.82 in 10.0 mi WSW 11.5 mph - N/A   Overcast
3:35 AM 36.5 °F 30.3 °F 28.4 °F 72% 29.82 in 10.0 mi WSW 8.1 mph - N/A   Overcast
3:55 AM 36.7 °F 29.4 °F 28.9 °F 74% 29.82 in 10.0 mi WSW 10.4 mph - N/A   Overcast
4:15 AM 36.5 °F 30.3 °F 29.8 °F 77% 29.82 in 10.0 mi SW 8.1 mph - N/A   Overcast
4:35 AM 36.7 °F 29.9 °F 30.9 °F 80% 29.82 in 10.0 mi WSW 9.2 mph 16.1 mph N/A   Overcast
4:55 AM 36.7 °F 29.4 °F 31.1 °F 80% 29.82 in 10.0 mi WSW 10.4 mph - N/A   Overcast
5:15 AM 36.5 °F 28.7 °F 32.0 °F 84% 29.82 in 10.0 mi WSW 11.5 mph 18.4 mph N/A   Overcast
5:34 AM 36.0 °F 29.0 °F 32.0 °F 86% 29.81 in 10.0 mi WSW 9.2 mph - N/A   Overcast
5:55 AM 36.0 °F 29.0 °F 32.2 °F 86% 29.81 in 10.0 mi SW 9.2 mph - N/A   Overcast
6:15 AM 35.6 °F 28.6 °F 32.0 °F 87% 29.81 in 10.0 mi WSW 9.2 mph 16.1 mph N/A   Overcast
6:34 AM 35.6 °F 27.1 °F 32.0 °F 87% 29.81 in 10.0 mi WSW 12.7 mph 17.3 mph N/A   Overcast
6:55 AM 35.6 °F 27.5 °F 32.0 °F 87% 29.81 in 10.0 mi WSW 11.5 mph - N/A   Overcast
7:15 AM 35.8 °F 27.3 °F 32.0 °F 86% 29.81 in 10.0 mi WSW 12.7 mph - N/A   Overcast
7:35 AM 35.8 °F 27.8 °F 31.8 °F 86% 29.82 in 10.0 mi WSW 11.5 mph 17.3 mph N/A   Overcast
7:55 AM 36.0 °F 28.5 °F 31.6 °F 84% 29.82 in 10.0 mi WSW 10.4 mph 17.3 mph N/A   Overcast
8:15 AM 36.0 °F 28.0 °F 31.1 °F 82% 29.83 in 10.0 mi WSW 11.5 mph 17.3 mph N/A   Overcast
8:35 AM 36.7 °F 27.6 °F 31.3 °F 81% 29.83 in 10.0 mi WSW 15.0 mph 21.9 mph N/A   Overcast
8:55 AM 36.5 °F 27.8 °F 30.6 °F 79% 29.83 in 10.0 mi WSW 13.8 mph 21.9 mph N/A   Overcast
9:15 AM 36.9 °F 28.2 °F 30.4 °F 77% 29.83 in 10.0 mi WSW 13.8 mph - N/A   Overcast
9:35 AM 37.4 °F 28.5 °F 30.0 °F 75% 29.82 in 10.0 mi WSW 15.0 mph - N/A   Overcast
9:55 AM 37.6 °F 28.1 °F 29.8 °F 74% 29.82 in 10.0 mi WSW 17.3 mph 25.3 mph N/A   Overcast
10:15 AM 37.2 °F 26.7 °F 29.5 °F 74% 29.83 in 10.0 mi WSW 20.7 mph 26.5 mph N/A   Overcast
10:35 AM 34.9 °F 25.7 °F 30.6 °F 84% 29.84 in 4.0 mi West 13.8 mph 29.9 mph N/A   Haze
10:55 AM 34.7 °F 25.5 °F 30.0 °F 83% 29.85 in 10.0 mi West 13.8 mph - N/A   Overcast
11:15 AM 35.8 °F 26.1 °F 30.0 °F 80% 29.85 in 10.0 mi West 16.1 mph - N/A   Overcast
11:35 AM 36.7 °F 27.2 °F 29.8 °F 76% 29.86 in 10.0 mi West 16.1 mph 21.9 mph N/A   Overcast
11:55 AM 37.2 °F 28.3 °F 29.1 °F 73% 29.86 in 10.0 mi West 15.0 mph 24.2 mph N/A   Overcast
12:14 PM 38.1 °F 29.1 °F 29.3 °F 71% 29.86 in 10.0 mi West 16.1 mph 21.9 mph N/A   Overcast
12:35 PM 38.3 °F 27.8 °F 27.3 °F 65% 29.86 in 10.0 mi West 21.9 mph 29.9 mph N/A   Overcast
12:55 PM 37.9 °F 28.5 °F 27.0 °F 65% 29.86 in 10.0 mi West 17.3 mph 23.0 mph N/A   Overcast
1:15 PM 38.3 °F 28.7 °F 27.1 °F 64% 29.86 in 10.0 mi West 18.4 mph - N/A   Overcast
1:35 PM 37.8 °F 26.6 °F 27.3 °F 66% 29.87 in 10.0 mi West 24.2 mph 29.9 mph N/A   Overcast
1:55 PM 36.5 °F 26.7 °F 28.0 °F 71% 29.88 in 10.0 mi West 17.3 mph 25.3 mph N/A   Overcast
2:15 PM 39.4 °F 30.4 °F 28.8 °F 66% 29.88 in 10.0 mi West 17.3 mph 25.3 mph N/A   Overcast
2:35 PM 39.6 °F 29.5 °F 26.6 °F 60% 29.88 in 10.0 mi West 21.9 mph 25.3 mph N/A   Overcast
2:55 PM 39.9 °F 30.2 °F 25.5 °F 56% 29.89 in 10.0 mi West 20.7 mph 26.5 mph N/A   Overcast
3:15 PM 38.5 °F 30.3 °F 25.9 °F 61% 29.90 in 10.0 mi West 13.8 mph 25.3 mph N/A   Overcast
3:35 PM 38.1 °F 29.5 °F 27.0 °F 64% 29.90 in 10.0 mi West 15.0 mph 24.2 mph N/A   Overcast
3:55 PM 38.8 °F 30.8 °F 26.4 °F 61% 29.90 in 10.0 mi West 13.8 mph - N/A   Overcast
4:15 PM 39.2 °F 30.8 °F 27.1 °F 62% 29.91 in 10.0 mi West 15.0 mph 24.2 mph N/A   Overcast
4:35 PM 39.9 °F 30.5 °F 25.9 °F 57% 29.91 in 10.0 mi West 19.6 mph 27.6 mph N/A   Overcast
4:55 PM 38.8 °F 29.4 °F 25.5 °F 59% 29.91 in 10.0 mi West 18.4 mph 27.6 mph N/A   Overcast
5:15 PM 40.1 °F 31.0 °F 24.8 °F 54% 29.91 in 10.0 mi West 18.4 mph 23.0 mph N/A   Overcast
5:35 PM 39.9 °F 31.8 °F 25.3 °F 56% 29.92 in 10.0 mi West 15.0 mph 19.6 mph N/A   Overcast
5:54 PM 39.6 °F 32.1 °F 25.7 °F 58% 29.92 in 10.0 mi West 12.7 mph - N/A   Overcast
6:15 PM 39.9 °F 31.4 °F 24.4 °F 54% 29.93 in 10.0 mi West 16.1 mph 23.0 mph N/A   Overcast
6:35 PM 39.7 °F 31.2 °F 24.4 °F 54% 29.93 in 10.0 mi West 16.1 mph 23.0 mph N/A   Overcast
6:55 PM 39.4 °F 32.3 °F 25.0 °F 56% 29.93 in 10.0 mi West 11.5 mph - N/A   Overcast
7:15 PM 39.2 °F 32.5 °F 25.5 °F 58% 29.93 in 10.0 mi West 10.4 mph - N/A   Overcast
7:35 PM 39.2 °F 35.0 °F 26.1 °F 59% 29.93 in 10.0 mi West 5.8 mph - N/A   Overcast
7:55 PM 39.2 °F 35.0 °F 25.9 °F 59% 29.93 in 10.0 mi West 5.8 mph - N/A   Overcast
8:15 PM 38.3 °F 33.9 °F 26.6 °F 63% 29.93 in 10.0 mi West 5.8 mph - N/A   Overcast
8:35 PM 38.3 °F 33.9 °F 26.4 °F 62% 29.94 in 10.0 mi WSW 5.8 mph - N/A   Overcast
8:55 PM 37.9 °F 35.5 °F 26.6 °F 64% 29.94 in 10.0 mi WSW 3.5 mph - N/A   Overcast
9:15 PM 37.4 °F 34.9 °F 27.3 °F 67% 29.95 in 10.0 mi WSW 3.5 mph - N/A   Overcast
9:35 PM 36.7 °F - 28.2 °F 71% 29.95 in 10.0 mi Calm Calm - N/A   Overcast
9:55 PM 36.7 °F - 28.4 °F 72% 29.96 in 10.0 mi Calm Calm - N/A   Overcast
10:14 PM 36.7 °F 32.9 °F 28.6 °F 72% 29.97 in 10.0 mi SW 4.6 mph - N/A   Overcast
10:35 PM 36.5 °F - 28.4 °F 72% 29.97 in 10.0 mi Calm Calm - N/A   Overcast
10:55 PM 37.2 °F - 28.8 °F 71% 29.98 in 10.0 mi Calm Calm - N/A   Overcast
11:15 PM 36.1 °F - 29.3 °F 76% 29.98 in 10.0 mi Calm Calm - N/A   Overcast
11:35 PM 36.5 °F - 29.1 °F 75% 29.97 in 10.0 mi Calm Calm - N/A   Overcast
11:55 PM 36.3 °F - 28.9 °F 75% 29.98 in 10.0 mi Calm Calm - N/A   Overcast